Regional Weather Roundup
Issued by NWS

Home | Current Version | Previous Version | Text Only | Print | Product List | Glossary On
Versions: 1 2 3 4 5 6 7 8 9 10 11 12 13 14 15 16 17 18 19 20 21 22 23 24 25 26 27 28 29 30 31 32 33 34 35 36 37 38 39 40 41 42 43 44 45 46 47 48 49 50
000
ASUS43 KLMK 280802
RWRKY
KENTUCKY REGIONAL WEATHER ROUNDUP
NATIONAL WEATHER SERVICE LOUISVILLE KY
400 AM EDT THU APR 28 2016

NOTE "FAIR" INDICATES FEW OR NO CLOUDS BELOW 12,000 FEET
WITH NO SIGNIFICANT WEATHER AND/OR OBSTRUCTIONS TO VISIBILITY.

KYZ001>023-026-027-061>063-070>075-280900-
WESTERN AND SOUTH CENTRAL KENTUCKY

CITY           SKY/WX    TMP DP  RH WIND       PRES   REMARKS
PADUCAH        MOCLDY    66  63  90 N7        29.74R
HENDERSON      CLOUDY    64  57  77 SE6       29.72S
OWENSBORO      CLOUDY    63  63 100 SE9       29.75R
HOPKINSVILLE   MOCLDY    64  64 100 S5        29.76S
BOWLING GREEN  CLOUDY    65  63  93 S3        29.76F
GLASGOW        NOT AVBL
$$

KYZ024-025-028>034-038-045-046-053-280900-
NORTH CENTRAL KENTUCKY

CITY           SKY/WX    TMP DP  RH WIND       PRES   REMARKS
LOUISVILLE/SDF CLOUDY    62  60  93 SE9       29.76S
LOUISVILLE/LOU CLOUDY    62  59  90 S3        29.77S
FORT KNOX      CLOUDY    61  61 100 SE8       29.77R
$$

KYZ035>037-039>044-047>052-055>060-089>105-280900-
NORTHEAST KENTUCKY

CITY           SKY/WX    TMP DP  RH WIND       PRES   REMARKS
LEXINGTON      CLOUDY    60  59  96 SE7       29.79F FOG
COVINGTON      FOG       60  59  96 E3        29.77F VSB 1/2
FRANKFORT      MOCLDY    60  58  92 S8        29.77F
$$

KYZ054-064>069-076>088-106>120-280900-
SOUTHEAST KENTUCKY

CITY           SKY/WX    TMP DP  RH WIND       PRES   REMARKS
JACKSON        FOG       59  58  96 CALM      29.84F VSB 3/4
LONDON         MOCLDY    60  58  92 SE3       29.83S
SOMERSET       NOT AVBL
MIDDLESBORO    NOT AVBL
MONTICELLO     CLOUDY    63  61  93 E8        29.82F
$$





USA.gov is the U.S. government's official web portal to all federal, state and local government web resources and services.